TimeEST,TemperatureF,Dew PointF,Humidity,Sea Level PressureIn,VisibilityMPH,Wind Direction,Wind SpeedMPH,Gust SpeedMPH,PrecipitationIn,Events,Conditions,WindDirDegrees,DateUTC
12:51 AM,33.8,24.8,70,30.10,10.0,NNW,13.8,24.2,N/A,,Overcast,340,2013-02-22 05:51:00
12:56 AM,34.0,25.0,70,30.12,10.0,NNW,16.1,29.9,N/A,,Overcast,330,2013-02-22 05:56:00
1:10 AM,33.8,24.8,70,30.13,10.0,NNW,16.1,26.5,N/A,,Overcast,340,2013-02-22 06:10:00
1:56 AM,32.0,21.9,66,30.14,10.0,NNW,19.6,29.9,N/A,,Overcast,330,2013-02-22 06:56:00
2:56 AM,32.0,24.1,73,30.15,10.0,NNW,13.8,27.6,N/A,,Overcast,340,2013-02-22 07:56:00
3:56 AM,33.1,26.1,75,30.17,10.0,NNW,12.7,24.2,N/A,,Overcast,340,2013-02-22 08:56:00
4:56 AM,34.0,27.0,75,30.18,10.0,North,16.1,25.3,N/A,,Overcast,360,2013-02-22 09:56:00
5:56 AM,34.0,28.0,79,30.24,10.0,NNW,15.0,23.0,N/A,,Overcast,340,2013-02-22 10:56:00
6:12 AM,35.6,28.4,75,30.24,10.0,NNW,10.4,-,N/A,,Overcast,340,2013-02-22 11:12:00
6:56 AM,36.0,27.0,70,30.27,10.0,North,11.5,-,N/A,,Overcast,10,2013-02-22 11:56:00
7:56 AM,37.0,27.0,67,30.31,10.0,North,13.8,19.6,N/A,,Overcast,360,2013-02-22 12:56:00
8:56 AM,37.0,27.0,67,30.31,10.0,North,11.5,20.7,N/A,,Overcast,10,2013-02-22 13:56:00
9:56 AM,37.9,26.1,62,30.31,10.0,North,11.5,20.7,N/A,,Overcast,10,2013-02-22 14:56:00
10:56 AM,37.9,26.1,62,30.31,10.0,NNE,12.7,19.6,N/A,,Overcast,20,2013-02-22 15:56:00
11:56 AM,37.9,25.0,60,30.31,10.0,NNE,10.4,18.4,N/A,,Overcast,30,2013-02-22 16:56:00
12:56 PM,37.9,26.1,62,30.30,10.0,NNE,10.4,19.6,N/A,,Overcast,20,2013-02-22 17:56:00
1:56 PM,37.0,26.1,65,30.32,10.0,North,10.4,18.4,N/A,,Overcast,10,2013-02-22 18:56:00
2:56 PM,37.0,27.0,67,30.31,10.0,NNE,9.2,-,N/A,,Overcast,20,2013-02-22 19:56:00
3:56 PM,37.0,26.1,65,30.33,10.0,NNE,6.9,-,N/A,,Overcast,30,2013-02-22 20:56:00
4:56 PM,36.0,26.1,67,30.33,10.0,NNE,8.1,-,N/A,,Overcast,30,2013-02-22 21:56:00
5:56 PM,36.0,24.1,62,30.33,10.0,NE,4.6,-,N/A,,Overcast,40,2013-02-22 22:56:00
6:56 PM,35.1,25.0,67,30.34,10.0,NE,4.6,-,N/A,,Overcast,40,2013-02-22 23:56:00
7:56 PM,35.1,26.1,70,30.33,10.0,North,3.5,-,N/A,,Overcast,10,2013-02-23 00:56:00
8:56 PM,35.1,27.0,72,30.33,10.0,Calm,Calm,-,N/A,,Overcast,0,2013-02-23 01:56:00
9:56 PM,35.1,27.0,72,30.34,10.0,NW,3.5,-,N/A,,Overcast,320,2013-02-23 02:56:00
10:56 PM,35.1,27.0,72,30.32,10.0,Calm,Calm,-,N/A,,Overcast,0,2013-02-23 03:56:00
11:56 PM,34.0,28.0,79,30.34,10.0,Calm,Calm,-,N/A,,Overcast,0,2013-02-23 04:56:00